STARLINK-37004, 68089

Orbit data source: Space-Track

STARLINK-37004, 68089 is a payload satellite owned by SpaceX/Seattle (US) in LEO that was launched on Wed, 04 Mar 2026 UTC via an FALCON 9 launch vehicle from the Air Force Eastern Test Range (AFETR). Payload-class satellites include a variety of spacecraft equipped with specific instruments for various scientific and technological missions. These include communications satellites like Starlink; space stations such as the ISS; scientific satellites like the Hubble; Earth observation satellites from companies like Planet Labs, Umbra, and HawkEye 360; GPS; miniature CubeSats for education and research; and military/defense satellites.

Loading next visibility...
Identifier
68089, 2026-042W
Orbit
LEO
Country
Flag of USUS
Related business
Manufacturer
SpaceX/Seattle
Mission
Operational spacecraft
Bus & Motor
STARLINK V2MO, Unknown motor
Mass
575 kg wet, ~530 kg dry
Launch date (UTC)
2026-03-04 (1 month ago)
Launch vehicle
FALCON 9
Launch site
Air Force Eastern Test Range (AFETR)
Object type
Payload
Rocket body
Debris
Shape & HBR
Unknown shape, 17.7 m
Radar Cross Section
RCS unknown

Expand to show TLE details & history
Last TLE update: 8 hours ago

TLE from 8 hours ago
0 STARLINK-37004
1 68089U 26042W   26100.53341630  .00264057  00000-0  16686-2 0  9992
2 68089  53.1597  35.6252 0001465  69.2295 290.8882 15.75306936  7116
Epoch: 2026-04-10T12:48Z
TLE epoch observation values (Epoch: 2026-04-10T12:48:07.168Z)
Latitude
-0.00003°
Longitude
4.8296°
Altitude
344.324 km
Speed
7.704 km/s
True Right ascension
02h 22m 30s
True Declination
0° 00' 00"
Sunlit
Object was in daylight at epoch
Visualization orbit readout
Latitude
Unknown
Longitude
Unknown
Altitude
Unknown
Speed
Unknown
Apparent Right ascension
Unknown
Apparent Declination
Unknown
Sunlit
N/A
Visualization observer readout
Local Sidereal Time
02:53:15
Azimuth
Unknown
Elevation
Unknown
Doppler factor
Unknown
Orbital elements
Apogee altitude
345.004 km
Perigee altitude
343.034 km
Semi-major axis
6,722.156 km
Eccentricity
0.00015
Inclination
53.1597°
RAAN
35.6252°
Arg. of periapsis
69.2295°
True anomaly
290.87251°
Mean anomaly
290.8882°
Eccentric anomaly
290.88036°
Mean motion
3.93804 °/min
Orbital period
91.42 mins
BSTAR
0.0016686
Loading maneuver chart data...
Computing Atmospheric mass density...
Loading historical data...
Loading historical data...
Loading historical data...
Loading historical data...
Loading historical data...
Loading historical data...
Loading historical data...

Documentation

Showing up to 5 results
|